Location: Colle Pacifico
(43.5333°N, 13.3167°E)
Time: 18:30:25
(UTC+00:00)

USA 229 - Pass Details

Date: 07 June 2020
Orbit: 980 x 1233 km, 63.4° (Epoch: 24 June)

Event Time Altitude Azimuth Distance (km) Brightness Sun altitude
Rises 01:08:15 0° 322° (NW) 3,968 7.0 -18.0°
Reaches altitude 10° 01:10:54 10° 321° (NW) 3,041 6.3 -17.7°
Maximum altitude 01:18:11 75° 238° (WSW) 1,230 3.8 -17.0°
Drops below altitude 10° 01:25:49 10° 154° (SSE) 3,167 5.9 -16.3°
Sets 01:28:37 0° 153° (SSE) 4,142 6.5 -16.0°
